Location: Chmeln�
(49.6483°N, 14.9871°E)
Time: 03:16:44
(UTC+00:00)

NOSS 3-2 (C) - Pass Details

Date: 18 September 2020
Orbit: 795 x 1418 km, 63.4° (Epoch: 02 October)

Event Time Altitude Azimuth Distance (km) Brightness Sun altitude
Rises 18:43:59 0° 316° (NW) 3,877 7.9 -16.2°
Reaches altitude 10° 18:46:31 10° 319° (NW) 3,004 7.1 -16.6°
Maximum altitude 18:53:48 70° 43° (NE) 1,318 4.1 -17.7°
Enters shadow 18:58:45 27° 122° (ESE) 2,316 4.8 -18.4°
